Dewpoint
40 38 38 33 34 32 32 33 34 33 33 33 33 32 32 32 32 33 34 35 34 34 31 32 33 33 33
37 35 37 34 33 31 27 28 30 34 33 33 32 32 31 31 33 34 34 33 31 29 31 30 32 33 33
33 34 36 34 33 30 26 25 26 32 33 32 32 32 32 32 34 32 31 29 28 29 30 31 32 33 32
34 33 33 34 33 29 26 25 23 25 30 30 32 32 33 32 31 30 28 26 27 29 31 31 30 30 30
33 32 32 32 31 29 27 26 26 24 27 28 30 31 31 30 28 29 26 26 28 29 30 30 29 29 29
34 33 31 31 31 28 27 26 25 28 26 27 29 29 27 27 27 24 26 26 27 29 28 28 27 27 27
33 32 30 30 30 28 28 27 27 29 28 27 28 27 27 24 26 25 25 26 29 29 27 26 26 26 26
39 36 34 31 30 30 29 29 29 28 29 25 28 25 24 24 23 24 25 28 27 25 24 24 25 25 25
37 34 33 32 31 30 29 27 26 27 29 26 24 23 22 23 23 24 27 24 23 23 23 24 24 24 23
34 36 36 34 32 30 29 27 26 25 27 25 25 23 21 23 22 22 27 26 22 23 22 22 22 22 21
31 31 31 31 31 31 31 29 27 27 27 29 27 25 23 24 24 24 23 22 21 21 20 21 21 21 22
30 30 29 29 30 30 30 29 29 28 28 29 27 26 25 24 21 23 24 23 23 22 23 23 23 21 21
29 29 29 29 28 28 27 28 28 29 28 28 28 27 26 23 21 21 21 22 23 23 24 23 22 22 21
30 30 29 28 27 27 26 26 25 25 28 28 28 26 24 23 23 22 22 20 23 23 23 23 22 22 22
29 28 28 28 27 29 27 27 25 24 23 25 25 25 24 23 21 21 21 21 22 22 22 22 21 21 21
30 29 28 27 26 27 27 25 25 23 23 24 23 22 21 21 22 20 20 20 21 22 22 21 20 21 21
30 29 28 27 26 25 25 25 23 23 22 23 21 19 17 15 18 23 21 21 21 20 20 20 20 20 21
Wind_Speed
15 13 18 16 16 15 13 14 12 15 15 14 13 11 9 8 8 7 7 8 9 10 12 12 13 13 14
11 10 16 17 16 16 13 12 12 15 16 15 14 12 9 9 9 7 7 6 8 9 11 12 12 13 13
9 10 16 16 16 15 14 12 11 14 17 15 14 13 11 10 9 8 6 6 7 10 11 10 9 11 14
8 16 15 17 15 17 16 12 12 11 12 12 12 13 12 11 10 8 7 7 9 11 10 8 10 12 16
13 15 14 21 24 18 16 13 12 9 10 11 9 8 9 11 9 11 10 10 10 10 8 11 12 14 17
17 21 20 19 18 22 16 15 9 14 13 12 13 11 10 11 12 10 10 11 12 9 9 12 13 15 18
27 24 20 26 23 22 21 19 10 11 11 12 10 11 11 8 11 10 12 12 12 10 11 12 14 17 18
18 18 13 21 25 18 20 13 12 9 9 8 8 8 8 8 10 10 12 10 8 9 10 13 15 17 18
15 17 19 24 21 21 20 21 7 5 7 6 5 4 3 7 9 10 13 10 8 10 12 15 16 16 15
18 19 21 21 25 19 23 22 12 5 8 9 6 6 3 3 3 7 9 13 12 12 15 16 16 11 12
19 19 17 15 12 13 12 16 12 5 9 6 6 5 3 1 4 7 7 7 8 10 13 14 14 15 14
19 18 18 16 14 15 16 14 10 8 16 7 6 7 6 3 4 4 6 8 9 9 9 13 16 17 19
18 16 14 15 18 16 16 17 15 12 10 6 6 7 6 5 2 2 6 4 7 11 10 12 13 13 15
18 17 16 13 15 12 14 12 11 8 6 5 5 6 6 6 8 11 9 7 4 9 10 11 13 13 14
19 17 16 15 14 12 13 12 6 10 7 5 5 3 4 5 9 12 12 12 11 12 11 12 15 17 17
16 17 17 15 14 11 12 9 9 9 8 8 6 2 4 10 19 13 12 12 11 10 11 14 17 19 18
16 15 15 14 16 13 11 10 9 8 7 7 6 6 6 8 2 17 11 9 10 13 13 14 18 20 20
Wind_Direction
170 168 183 182 177 183 165 168 186 196 195 192 194 199 203 219 231 237 247 275 296 305 307 311 313 314 312
159 162 185 184 171 180 169 182 181 194 196 195 198 199 208 221 223 229 254 278 291 297 301 305 309 309 307
153 166 173 176 170 179 177 185 189 178 196 199 201 205 215 220 221 234 242 265 279 287 292 294 309 315 312
156 155 163 176 174 175 185 182 188 172 194 197 201 210 212 219 227 217 232 252 270 277 278 288 299 306 309
154 157 157 171 185 183 185 178 185 176 181 191 188 189 211 224 220 217 227 246 264 263 267 288 296 304 305
168 171 180 182 177 177 174 165 190 188 188 197 186 197 209 197 211 209 227 254 255 238 267 290 299 300 298
179 181 171 179 175 174 184 184 178 159 169 194 180 210 210 202 188 218 251 249 240 241 276 292 296 297 296
191 185 183 171 174 181 173 140 96 136 175 181 165 199 204 193 209 224 242 227 231 259 279 291 293 293 291
154 146 157 163 160 140 154 153 146 160 202 164 158 181 221 226 198 213 215 223 258 269 288 291 290 289 293
132 132 141 159 157 165 160 166 143 143 185 172 157 155 219 214 221 195 228 244 264 264 284 286 287 281 291
129 127 131 126 125 133 150 152 145 113 171 152 159 156 196 187 204 224 223 248 263 273 283 285 283 289 292
134 139 139 130 114 99 93 90 80 129 155 136 134 161 173 191 239 184 220 251 264 270 276 285 286 292 293
140 135 129 121 107 97 89 88 83 109 114 102 132 158 180 204 232 234 296 263 254 267 260 269 281 289 299
133 122 117 117 113 121 119 120 112 107 97 144 170 167 198 229 250 262 257 268 246 274 272 277 287 289 286
124 126 129 131 132 135 132 134 138 155 170 172 165 190 233 240 255 251 260 260 264 281 291 293 293 289 287
135 141 142 140 135 130 136 151 161 166 170 167 166 202 245 250 226 245 256 263 270 278 286 286 285 289 288
134 139 139 139 145 146 154 160 167 159 174 159 174 202 236 255 280 210 242 271 285 288 286 278 284 287 290